Location: Banff
(51.1667°N, 115.5667°W)
Time: 19:57:28
(UTC+00:00)

Vanguard 1 Rocket - Pass Details

Date: 03 December 2020
Orbit: 655 x 4221 km, 34.3° (Epoch: 17 January)

Event Time Altitude Azimuth Distance (km) Brightness Sun altitude
Exits shadow 12:28:52 28° 246° (WSW) 5,397 10.8 -26.9°
Maximum altitude 12:38:16 39° 207° (SSW) 4,149 10.5 -25.5°
Drops below altitude 10° 12:51:01 10° 145° (SE) 4,670 11.5 -23.5°
Sets 12:54:13 0° 137° (SE) 5,264 12.1 -23.0°
